STARLINK-2482

Last updated on Sat May 08 2021 00:02:05 GMT+0000 (Coordinated Universal Time)

1 48139U 21027AZ 21127.58334491 -.00052854 00000-0 -37367-3 0 9992 2 48139 53.0471 191.7585 0002515 24.4725 272.2417 15.73244385 1772

Satellite not in orbit